Regional Weather Roundup
Issued by NWS

Home | Current Version | Previous Version | Graphics & Text | Print | Product List | Glossary On
Versions: 1 2 3 4 5 6 7 8 9 10 11 12 13 14 15 16 17 18 19 20 21 22 23 24 25 26 27 28 29 30 31 32 33 34 35 36 37 38 39 40 41 42 43 44 45 46 47 48 49 50
000
ASUS44 KMEG 240900
RWRTN
TENNESSEE HOURLY STATE WEATHER ROUNDUP
NATIONAL WEATHER SERVICE MEMPHIS TN
400 AM CDT THU JUL 24 2014

TNZ002-004-019-021-049-052-054-088>092-241000-
WEST TENNESSEE

CITY           SKY/WX    TMP DP  RH WIND       PRES   REMARKS
MEMPHIS INTL   PTCLDY    72  68  87 VRB7      29.99S
NWS MEMPHIS      N/A     70 N/A N/A MISG        N/A
JACKSON        MOCLDY    70  67  90 NW5       29.99S
DYERSBURG      CLEAR     70  59  68 N7        30.01S
$$

TNZ008-025-027-028-033-062-065-066-241000-
NORTH MIDDLE TENNESSEE

CITY           SKY/WX    TMP DP  RH WIND       PRES   REMARKS
NASHVILLE      MOCLDY    73  69  87 N7        29.95F
CLARKSVILLE    CLOUDY    73  67  81 N7        29.97S
CROSSVILLE     CLOUDY    69  66  90 SW5       30.00F FOG
$$

TNZ061-075-076-078-094-096-097-241000-
SOUTH MIDDLE TENNESSEE

CITY           SKY/WX    TMP DP  RH WIND       PRES   REMARKS
$$

TNZ017-018-042-046-047-241000-
NORTHEAST TENNESSEE

CITY           SKY/WX    TMP DP  RH WIND       PRES   REMARKS
TRI CITIES     CLOUDY    70  67  90 CALM      29.97S
$$

TNZ012-013-036-069-073-074-241000-
CENTRAL EAST TENNESSEE

CITY           SKY/WX    TMP DP  RH WIND       PRES   REMARKS
KNOXVILLE      MOCLDY    72  69  90 W6        29.94S
OAK RIDGE      CLOUDY    71  69  93 CALM      29.96F
$$

TNZ083-085-099-241000-
SOUTHEAST TENNESSEE

CITY           SKY/WX    TMP DP  RH WIND       PRES   REMARKS
CHATTANOOGA    MOCLDY    74  70  87 SE3       29.95F
$$

SKY/WX REPORTED AS FAIR MEANS FEW OR NO CLOUDS BELOW
12 THOUSAND FEET.



USA.gov is the U.S. government's official web portal to all federal, state and local government web resources and services.